Time,TemperatureF,DewpointF,PressureIn,WindDirection,WindDirectionDegrees,WindSpeedMPH,WindSpeedGustMPH,Humidity,HourlyPrecipIn,Conditions,Clouds,dailyrainin,SolarRadiationWatts/m^2,SoftwareType,DateUTC
2013-06-14 00:02:00,48.0,47.0,-100.00,SSE,155,1.0,8.0,95,0.00,,,0.45,0.000000,,2013-06-14 07:02:00,
2013-06-14 00:11:00,47.0,46.0,-100.00,ESE,123,0.0,5.0,95,0.01,,,0.46,0.000000,,2013-06-14 07:11:00,
2013-06-14 00:43:00,47.0,46.0,-100.00,ESE,123,0.0,5.0,95,0.01,,,0.46,0.000000,,2013-06-14 07:43:00,
2013-06-14 00:53:00,47.0,46.0,-100.00,ESE,123,0.0,5.0,95,0.01,,,0.46,0.000000,,2013-06-14 07:53:00,
2013-06-14 01:02:00,47.0,46.0,-100.00,ESE,123,0.0,5.0,95,0.01,,,0.46,0.000000,,2013-06-14 08:02:00,
2013-06-14 01:11:00,47.0,46.0,-100.00,SSE,151,0.0,8.0,96,0.00,,,0.46,0.000000,,2013-06-14 08:11:00,
2013-06-14 01:33:00,47.0,46.0,-100.00,SSE,151,0.0,8.0,96,0.00,,,0.46,0.000000,,2013-06-14 08:33:00,
2013-06-14 01:43:00,47.0,46.0,-100.00,SSE,151,0.0,8.0,96,0.00,,,0.46,0.000000,,2013-06-14 08:43:00,
2013-06-14 01:53:00,47.0,46.0,-100.00,SSE,151,0.0,8.0,96,0.00,,,0.46,0.000000,,2013-06-14 08:53:00,
2013-06-14 02:01:00,47.0,46.0,-100.00,SSE,151,0.0,8.0,96,0.00,,,0.46,0.000000,,2013-06-14 09:01:00,
2013-06-14 02:11:00,46.0,45.0,-100.00,ESE,118,0.0,7.0,95,0.00,,,0.44,0.000000,,2013-06-14 09:11:00,
2013-06-14 02:43:00,46.0,45.0,-100.00,ESE,118,0.0,7.0,95,0.00,,,0.44,0.000000,,2013-06-14 09:43:00,
2013-06-14 02:53:00,46.0,45.0,-100.00,ESE,118,0.0,7.0,95,0.00,,,0.44,0.000000,,2013-06-14 09:53:00,
2013-06-14 03:01:00,46.0,45.0,-100.00,ESE,118,0.0,7.0,95,0.00,,,0.44,0.000000,,2013-06-14 10:01:00,
2013-06-14 03:11:00,44.0,43.0,-100.00,SE,124,0.0,6.0,95,0.00,,,0.44,0.000000,,2013-06-14 10:11:00,
2013-06-14 03:44:00,44.0,43.0,-100.00,SE,124,0.0,6.0,95,0.00,,,0.44,0.000000,,2013-06-14 10:44:00,
2013-06-14 03:52:00,44.0,43.0,-100.00,SE,124,0.0,6.0,95,0.00,,,0.44,0.000000,,2013-06-14 10:52:00,
2013-06-14 04:02:00,44.0,43.0,-100.00,SE,124,0.0,6.0,95,0.00,,,0.44,0.000000,,2013-06-14 11:02:00,
2013-06-14 04:11:00,44.0,43.0,-100.00,East,83,0.0,5.0,95,0.00,,,0.41,0.000000,,2013-06-14 11:11:00,
2013-06-14 04:43:00,44.0,43.0,-100.00,East,83,0.0,5.0,95,0.00,,,0.41,0.000000,,2013-06-14 11:43:00,
2013-06-14 04:52:00,44.0,43.0,-100.00,East,83,0.0,5.0,95,0.00,,,0.41,0.000000,,2013-06-14 11:52:00,
2013-06-14 05:01:00,44.0,43.0,-100.00,East,83,0.0,5.0,95,0.00,,,0.41,0.000000,,2013-06-14 12:01:00,
2013-06-14 05:11:00,44.0,43.0,-100.00,SSW,194,0.0,3.0,95,0.00,,,0.38,0.000000,,2013-06-14 12:11:00,
2013-06-14 05:43:00,44.0,43.0,-100.00,SSW,194,0.0,3.0,95,0.00,,,0.38,0.000000,,2013-06-14 12:43:00,
2013-06-14 05:52:00,44.0,43.0,-100.00,SSW,194,0.0,3.0,95,0.00,,,0.38,0.000000,,2013-06-14 12:52:00,
2013-06-14 06:02:00,44.0,43.0,-100.00,SSW,194,0.0,3.0,95,0.00,,,0.38,0.000000,,2013-06-14 13:02:00,
2013-06-14 06:11:00,45.0,44.0,-100.00,South,179,0.0,4.0,95,0.01,,,0.37,2.000000,,2013-06-14 13:11:00,
2013-06-14 06:43:00,45.0,44.0,-100.00,South,179,0.0,4.0,95,0.01,,,0.37,2.000000,,2013-06-14 13:43:00,
2013-06-14 06:53:00,45.0,44.0,-100.00,South,179,0.0,4.0,95,0.01,,,0.37,2.000000,,2013-06-14 13:53:00,
2013-06-14 07:02:00,45.0,44.0,-100.00,South,179,0.0,4.0,95,0.01,,,0.37,2.000000,,2013-06-14 14:02:00,
2013-06-14 07:11:00,46.0,45.0,-100.00,South,171,0.0,4.0,95,0.04,,,0.41,20.000000,,2013-06-14 14:11:00,
2013-06-14 07:43:00,46.0,45.0,-100.00,South,171,0.0,4.0,95,0.04,,,0.41,20.000000,,2013-06-14 14:43:00,
2013-06-14 07:52:00,46.0,45.0,-100.00,South,171,0.0,4.0,95,0.04,,,0.41,20.000000,,2013-06-14 14:52:00,
2013-06-14 08:01:00,46.0,45.0,-100.00,South,171,0.0,4.0,95,0.04,,,0.41,20.000000,,2013-06-14 15:01:00,
2013-06-14 08:11:00,46.0,44.0,-100.00,SSE,161,0.0,3.0,93,0.00,,,0.41,59.000000,,2013-06-14 15:11:00,
2013-06-14 08:33:00,46.0,44.0,-100.00,SSE,161,0.0,3.0,93,0.00,,,0.41,59.000000,,2013-06-14 15:33:00,
2013-06-14 08:44:00,46.0,44.0,-100.00,SSE,161,0.0,3.0,93,0.00,,,0.41,59.000000,,2013-06-14 15:44:00,
2013-06-14 08:53:00,46.0,44.0,-100.00,SSE,161,0.0,3.0,93,0.00,,,0.41,59.000000,,2013-06-14 15:53:00,
2013-06-14 09:01:00,46.0,44.0,-100.00,SSE,161,0.0,3.0,93,0.00,,,0.41,59.000000,,2013-06-14 16:01:00,
2013-06-14 09:11:00,49.0,45.0,-100.00,SW,227,0.0,0.0,86,0.00,,,0.40,96.000000,,2013-06-14 16:11:00,
2013-06-14 09:33:00,49.0,45.0,-100.00,SW,227,0.0,0.0,86,0.00,,,0.40,96.000000,,2013-06-14 16:33:00,
2013-06-14 09:43:00,49.0,45.0,-100.00,SW,227,0.0,0.0,86,0.00,,,0.40,96.000000,,2013-06-14 16:43:00,
2013-06-14 09:53:00,49.0,45.0,-100.00,SW,227,0.0,0.0,86,0.00,,,0.40,96.000000,,2013-06-14 16:53:00,
2013-06-14 10:02:00,49.0,45.0,-100.00,SW,227,0.0,0.0,86,0.00,,,0.40,96.000000,,2013-06-14 17:02:00,
2013-06-14 10:11:00,49.0,44.0,-100.00,SSW,205,0.0,0.0,82,0.00,,,0.35,178.000000,,2013-06-14 17:11:00,
2013-06-14 10:34:00,49.0,44.0,-100.00,SSW,205,0.0,0.0,82,0.00,,,0.35,178.000000,,2013-06-14 17:34:00,
2013-06-14 10:43:00,49.0,44.0,-100.00,SSW,205,0.0,0.0,82,0.00,,,0.35,178.000000,,2013-06-14 17:43:00,
2013-06-14 10:53:00,49.0,44.0,-100.00,SSW,205,0.0,0.0,82,0.00,,,0.35,178.000000,,2013-06-14 17:53:00,
2013-06-14 11:02:00,49.0,44.0,-100.00,SSW,205,0.0,0.0,82,0.00,,,0.35,178.000000,,2013-06-14 18:02:00,
2013-06-14 11:11:00,50.0,44.0,-100.00,South,183,0.0,4.0,81,0.00,,,0.34,188.000000,,2013-06-14 18:11:00,
2013-06-14 11:43:00,50.0,44.0,-100.00,South,183,0.0,4.0,81,0.00,,,0.34,188.000000,,2013-06-14 18:43:00,
2013-06-14 11:52:00,50.0,44.0,-100.00,South,183,0.0,4.0,81,0.00,,,0.34,188.000000,,2013-06-14 18:52:00,
2013-06-14 12:01:00,50.0,44.0,-100.00,South,183,0.0,4.0,81,0.00,,,0.34,188.000000,,2013-06-14 19:01:00,
2013-06-14 12:11:00,56.0,46.0,-100.00,SSE,162,0.0,5.0,70,0.00,,,0.33,403.000000,,2013-06-14 19:11:00,
2013-06-14 12:43:00,56.0,46.0,-100.00,SSE,162,0.0,5.0,70,0.00,,,0.33,403.000000,,2013-06-14 19:43:00,
2013-06-14 12:53:00,56.0,46.0,-100.00,SSE,162,0.0,5.0,70,0.00,,,0.33,403.000000,,2013-06-14 19:53:00,
2013-06-14 13:01:00,56.0,46.0,-100.00,SSE,162,0.0,5.0,70,0.00,,,0.33,403.000000,,2013-06-14 20:01:00,
2013-06-14 13:11:00,57.0,45.0,-100.00,SW,235,0.0,5.0,65,0.00,,,0.33,508.000000,,2013-06-14 20:11:00,
2013-06-14 13:33:00,57.0,45.0,-100.00,SW,235,0.0,5.0,65,0.00,,,0.33,508.000000,,2013-06-14 20:33:00,
2013-06-14 13:43:00,57.0,45.0,-100.00,SW,235,0.0,5.0,65,0.00,,,0.33,508.000000,,2013-06-14 20:43:00,
2013-06-14 13:53:00,57.0,45.0,-100.00,SW,235,0.0,5.0,65,0.00,,,0.33,508.000000,,2013-06-14 20:53:00,
2013-06-14 14:02:00,57.0,45.0,-100.00,SW,235,0.0,5.0,65,0.00,,,0.33,508.000000,,2013-06-14 21:02:00,
2013-06-14 14:11:00,60.0,47.0,-100.00,South,180,0.0,6.0,62,0.00,,,0.33,559.000000,,2013-06-14 21:11:00,
2013-06-14 14:43:00,60.0,47.0,-100.00,South,180,0.0,6.0,62,0.00,,,0.33,559.000000,,2013-06-14 21:43:00,
2013-06-14 14:52:00,60.0,47.0,-100.00,South,180,0.0,6.0,62,0.00,,,0.33,559.000000,,2013-06-14 21:52:00,
2013-06-14 15:01:00,60.0,47.0,-100.00,South,180,0.0,6.0,62,0.00,,,0.33,559.000000,,2013-06-14 22:01:00,
2013-06-14 15:11:00,62.0,49.0,-100.00,South,179,0.0,6.0,62,0.00,,,0.32,623.000000,,2013-06-14 22:11:00,
2013-06-14 15:33:00,62.0,49.0,-100.00,South,179,0.0,6.0,62,0.00,,,0.32,623.000000,,2013-06-14 22:33:00,
2013-06-14 15:43:00,62.0,49.0,-100.00,South,179,0.0,6.0,62,0.00,,,0.32,623.000000,,2013-06-14 22:43:00,
2013-06-14 15:53:00,62.0,49.0,-100.00,South,179,0.0,6.0,62,0.00,,,0.32,623.000000,,2013-06-14 22:53:00,
2013-06-14 16:01:00,62.0,49.0,-100.00,South,179,0.0,6.0,62,0.00,,,0.32,623.000000,,2013-06-14 23:01:00,
2013-06-14 16:11:00,65.0,49.0,-100.00,SSE,147,0.0,8.0,57,0.00,,,0.30,893.000000,,2013-06-14 23:11:00,
2013-06-14 16:43:00,65.0,49.0,-100.00,SSE,147,0.0,8.0,57,0.00,,,0.30,893.000000,,2013-06-14 23:43:00,
2013-06-14 16:52:00,65.0,49.0,-100.00,SSE,147,0.0,8.0,57,0.00,,,0.30,893.000000,,2013-06-14 23:52:00,
2013-06-14 17:01:00,65.0,49.0,-100.00,SSE,147,0.0,8.0,57,0.00,,,0.30,893.000000,,2013-06-15 00:01:00,
2013-06-14 18:11:00,59.0,48.0,-100.00,SE,141,1.0,7.0,67,-99.99,,,0.26,55.000000,,2013-06-15 01:11:00,
2013-06-14 18:33:00,59.0,48.0,-100.00,SE,141,1.0,7.0,67,-99.99,,,0.26,55.000000,,2013-06-15 01:33:00,
2013-06-14 18:43:00,59.0,48.0,-100.00,SE,141,1.0,7.0,67,-99.99,,,0.26,55.000000,,2013-06-15 01:43:00,
2013-06-14 18:54:00,59.0,48.0,-100.00,SE,141,1.0,7.0,67,-99.99,,,0.26,55.000000,,2013-06-15 01:54:00,
2013-06-14 19:02:00,59.0,48.0,-100.00,SE,141,1.0,7.0,67,-99.99,,,0.26,55.000000,,2013-06-15 02:02:00,
2013-06-14 19:11:00,57.0,48.0,-100.00,SE,143,0.0,8.0,73,0.00,,,0.24,33.000000,,2013-06-15 02:11:00,
2013-06-14 19:43:00,57.0,48.0,-100.00,SE,143,0.0,8.0,73,0.00,,,0.24,33.000000,,2013-06-15 02:43:00,
2013-06-14 19:53:00,57.0,48.0,-100.00,SE,143,0.0,8.0,73,0.00,,,0.24,33.000000,,2013-06-15 02:53:00,
2013-06-14 20:01:00,57.0,48.0,-100.00,SE,143,0.0,8.0,73,0.00,,,0.24,33.000000,,2013-06-15 03:01:00,
2013-06-14 20:11:00,55.0,48.0,-100.00,SE,146,0.0,5.0,77,0.00,,,0.06,16.000000,,2013-06-15 03:11:00,
2013-06-14 20:44:00,55.0,48.0,-100.00,SE,146,0.0,5.0,77,0.00,,,0.06,16.000000,,2013-06-15 03:44:00,
2013-06-14 20:53:00,55.0,48.0,-100.00,SE,146,0.0,5.0,77,0.00,,,0.06,16.000000,,2013-06-15 03:53:00,
2013-06-14 21:01:00,55.0,48.0,-100.00,SE,146,0.0,5.0,77,0.00,,,0.06,16.000000,,2013-06-15 04:01:00,
2013-06-14 21:11:00,53.0,48.0,-100.00,NW,307,0.0,5.0,83,0.00,,,0.06,7.000000,,2013-06-15 04:11:00,
2013-06-14 21:43:00,53.0,48.0,-100.00,NW,307,0.0,5.0,83,0.00,,,0.06,7.000000,,2013-06-15 04:43:00,
2013-06-14 21:54:00,53.0,48.0,-100.00,NW,307,0.0,5.0,83,0.00,,,0.06,7.000000,,2013-06-15 04:54:00,
2013-06-14 22:02:00,53.0,48.0,-100.00,NW,307,0.0,5.0,83,0.00,,,0.06,7.000000,,2013-06-15 05:02:00,
2013-06-14 22:11:00,51.0,47.0,-100.00,South,174,0.0,4.0,86,0.00,,,0.06,0.000000,,2013-06-15 05:11:00,
2013-06-14 22:43:00,51.0,47.0,-100.00,South,174,0.0,4.0,86,0.00,,,0.06,0.000000,,2013-06-15 05:43:00,
2013-06-14 22:52:00,51.0,47.0,-100.00,South,174,0.0,4.0,86,0.00,,,0.06,0.000000,,2013-06-15 05:52:00,
2013-06-14 23:02:00,51.0,47.0,-100.00,South,174,0.0,4.0,86,0.00,,,0.06,0.000000,,2013-06-15 06:02:00,
2013-06-14 23:11:00,50.0,47.0,-100.00,SE,138,0.0,0.0,89,0.00,,,0.06,0.000000,,2013-06-15 06:11:00,
2013-06-14 23:33:00,50.0,47.0,-100.00,SE,138,0.0,0.0,89,0.00,,,0.06,0.000000,,2013-06-15 06:33:00,
2013-06-14 23:43:00,50.0,47.0,-100.00,SE,138,0.0,0.0,89,0.00,,,0.06,0.000000,,2013-06-15 06:43:00,
2013-06-14 23:53:00,50.0,47.0,-100.00,SE,138,0.0,0.0,89,0.00,,,0.06,0.000000,,2013-06-15 06:53:00,